Location: Erlenbrunn
(49.1717°N, 7.6142°E)
Time: 12:21:54
(UTC+00:00)

Cosmos 2237 Rocket - Pass Details

Date: 25 November 2020
Orbit: 833 x 851 km, 71.0° (Epoch: 25 January)

Event Time Altitude Azimuth Distance (km) Brightness Sun altitude
Rises 17:26:47 0° 217° (SW) 3,369 6.1 -17.3°
Reaches altitude 10° 17:29:14 10° 220° (SW) 2,440 5.4 -17.7°
Maximum altitude 17:34:47 63° 302° (WNW) 929 2.6 -18.6°
Enters shadow 17:39:41 14° 22° (NNE) 2,204 4.1 -19.4°
